Waarnemingen

Advertentie
Mijn weer
Dax, Frankrijk (7603): temperatuur & dauwpunt: 17.07.2017 08:00:00 - 23.07.2017 08:00:00 (CEST)Dax, Frankrijk (7603): temperatuur 5cm: 17.07.2017 08:00:00 - 23.07.2017 08:00:00 (CEST)Dax, Frankrijk (7603): temperatuur -20cm & temperatuur -100cm: 17.07.2017 08:00:00 - 23.07.2017 08:00:00 (CEST)Dax, Frankrijk (7603): windsnelheid & windstoten: 17.07.2017 08:00:00 - 23.07.2017 08:00:00 (CEST)Dax, Frankrijk (7603): windrichting: 17.07.2017 08:00:00 - 23.07.2017 08:00:00 (CEST)Dax, Frankrijk (7603): luchtdruk: 17.07.2017 08:00:00 - 23.07.2017 08:00:00 (CEST)Dax, Frankrijk (7603): zicht: 17.07.2017 08:00:00 - 23.07.2017 08:00:00 (CEST)Dax, Frankrijk (7603): Zonneschijnduur: 17.07.2017 08:00:00 - 23.07.2017 08:00:00 (CEST)Dax, Frankrijk (7603): neerslag: 17.07.2017 08:00:00 - 23.07.2017 08:00:00 (CEST)
Datum & Tijd tt [°C] td [°C] tt 5cm [°C] tt -20cm [°C] tt -100cm [°C] ff [km/u] ff [kn] fx [km/u] fx [kn] dd ppp [hPa] vv [km] sd [min] rr [mm]
23.07.2017 08:00:00 18,4 16,2 18,0 22,3 21,2 4 2 12 6 ZZW 1021,4 19 0 0,0
23.07.2017 07:00:00 18,1 15,7 17,5 22,4 21,2 7 4 12 6 ZZW 1021,3 20 0 0,0
23.07.2017 06:00:00 17,9 15,7 17,6 22,5 21,2 7 4 11 6 Z 1021,2 20 0 0,0
23.07.2017 05:00:00 17,9 15,9 17,5 22,5 21,2 6 4 10 5 Z 1021,0 23 0 0,0
23.07.2017 04:00:00 18,0 15,4 17,4 22,6 21,2 6 3 9 5 Z 1021,1 23 0 0,0
23.07.2017 03:00:00 18,4 15,5 17,3 22,7 21,2 6 3 9 5 Z 1021,2 21 0 0,0
23.07.2017 02:00:00 18,5 15,2 17,9 22,7 21,3 4 2 8 4 ZZW 1021,4 23 0 0,0
23.07.2017 01:00:00 19,1 15,4 18,9 22,8 21,2 5 3 10 6 ZW 1021,2 23 0 0,0
23.07.2017 00:00:00 19,4 15,1 19,2 22,9 21,3 6 3 11 6 WZW 1021,1 27 0 0,0
22.07.2017 23:00:00 19,6 15,3 19,5 22,9 21,3 4 2 8 5 W 1020,7 32 0 0,0
22.07.2017 22:00:00 20,0 15,4 19,8 22,9 21,3 5 3 14 8 WNW 1019,7 29 0 0,0
22.07.2017 21:00:00 20,8 16,0 20,7 22,9 21,3 5 3 23 13 WNW 1018,8 27 0 0,0
22.07.2017 20:00:00 21,5 15,1 21,8 22,8 21,3 13 7 24 13 WNW 1018,2 26 0 0,0
22.07.2017 19:00:00 23,3 15,4 24,6 22,7 21,3 9 5 24 13 NW 1017,4 27 9 0,0
22.07.2017 18:00:00 23,5 15,3 25,3 22,6 21,3 10 5 23 13 W 1016,9 21 17 0,0
22.07.2017 17:00:00 23,7 15,7 24,5 22,4 21,3 14 7 26 14 WNW 1016,7 22 33 0,0
22.07.2017 16:00:00 23,4 14,9 25,1 22,3 21,3 8 4 22 12 W 1016,4 26 9 0,0
22.07.2017 15:00:00 23,6 14,3 25,8 22,1 21,3 10 5 19 10 W 1016,2 24 1 0,0
22.07.2017 14:00:00 23,6 14,6 25,4 22,0 21,3 8 5 16 9 W 1016,0 25 7 0,0
22.07.2017 13:00:00 22,9 15,5 22,8 21,9 21,3 6 4 13 7 W 1016,0 21 3 0,0
22.07.2017 12:00:00 21,5 15,3 22,7 21,9 21,3 6 3 10 6 W 1015,9 26 0 0,0
22.07.2017 11:00:00 21,5 16,2 21,0 21,9 21,3 3 2 8 4 W 1015,5 26 18 0,0
22.07.2017 10:00:00 18,9 16,5 19,2 21,9 21,3 5 3 9 5 NW 1015,4 18 4 0,0
22.07.2017 09:00:00 17,5 16,0 17,4 21,9 21,3 4 2 7 4 Z 1015,1 15 19 0,0
22.07.2017 08:00:00 15,7 14,9 14,8 22,0 21,3 0 0 6 3 N 1014,8 12 16 0,0
22.07.2017 07:00:00 14,7 13,7 14,6 22,1 21,3 4 2 8 4 ZO 1014,8 9 0 0,2
22.07.2017 06:00:00 14,6 13,6 14,0 22,3 21,3 0 0 6 3 N 1015,0 20 0 0,0
22.07.2017 05:00:00 14,3 13,5 13,9 22,4 21,3 0 0 8 4 N 1014,6 16 0 0,0
22.07.2017 04:00:00 14,6 13,6 13,4 22,5 21,3 0 0 3 1 N 1014,9 19 0 0,0
22.07.2017 03:00:00 14,2 13,2 13,3 22,6 21,3 0 0 10 5 N 1014,9 19 0 0,0
22.07.2017 02:00:00 14,2 13,4 13,4 22,7 21,3 5 3 7 4 ZZO 1014,8 16 0 0,0
22.07.2017 01:00:00 15,1 14,0 14,1 22,9 21,3 2 1 6 3 ZZO 1015,2 17 0 0,0
22.07.2017 00:00:00 16,0 14,5 15,0 22,9 21,4 2 1 5 3 Z 1015,1 20 0 0,0
21.07.2017 23:00:00 17,3 13,0 16,7 23,0 21,3 4 2 9 5 W 1015,1 25 0 0,0
21.07.2017 22:00:00 18,3 14,2 17,5 23,1 21,4 5 3 9 5 W 1014,7 24 0 0,0
21.07.2017 21:00:00 19,6 14,4 19,5 23,0 21,4 5 3 9 5 W 1014,3 20 18 0,0
21.07.2017 20:00:00 20,5 13,9 20,8 23,0 21,3 5 3 14 7 WZW 1014,2 23 9 0,0
21.07.2017 19:00:00 20,4 14,3 21,2 23,0 21,4 6 3 12 7 NNW 1013,8 23 0 0,0
21.07.2017 18:00:00 20,7 14,1 21,8 22,9 21,3 6 3 14 8 NW 1013,9 26 0 0,0
21.07.2017 17:00:00 20,8 14,7 22,2 22,9 21,4 7 4 13 7 NW 1013,6 24 0 0,0
21.07.2017 16:00:00 20,8 14,4 22,6 22,8 21,4 7 4 13 7 NNW 1013,6 24 0 0,0
21.07.2017 15:00:00 21,0 14,4 23,1 22,7 21,4 8 4 15 8 NW 1013,6 8 0 0,0
21.07.2017 14:00:00 20,9 13,6 23,0 22,6 21,3 5 3 16 9 NO 1013,8 20 4 0,0
21.07.2017 13:00:00 20,1 14,2 21,6 22,6 21,4 5 3 13 7 NNO 1013,7 10 0 0,0
21.07.2017 12:00:00 18,9 14,6 20,3 22,6 21,3 5 3 10 6 NW 1014,0 20 0 0,0
21.07.2017 11:00:00 18,2 14,1 17,4 22,7 21,4 5 3 12 7 NO 1014,0 20 0 0,0
21.07.2017 10:00:00 17,4 14,3 16,3 22,8 21,4 6 3 11 6 NNO 1014,5 20 0 0,0
21.07.2017 09:00:00 16,9 14,7 15,9 22,8 21,3 5 3 9 5 O 1014,4 10 0 0,0
21.07.2017 08:00:00 16,6 15,0 15,5 22,9 21,3 3 1 5 3 N 1014,3 10 0 0,0
21.07.2017 07:00:00 16,5 14,1 15,2 23,0 21,3 2 1 8 5 NO 1014,4 10 0 1,0
21.07.2017 06:00:00 17,2 14,1 16,7 23,1 21,3 3 2 16 9 ZO 1014,6 11 0 0,0
21.07.2017 05:00:00 17,4 13,5 17,1 23,2 21,4 3 2 9 5 O 1014,8 21 0 0,0
21.07.2017 04:00:00 17,8 13,1 17,4 23,3 21,4 4 2 10 6 O 1015,1 24 0 0,0
21.07.2017 03:00:00 18,1 12,8 17,7 23,4 21,4 5 3 12 6 NO 1015,7 25 0 0,0
21.07.2017 02:00:00 18,3 13,4 18,0 23,4 21,3 5 3 10 6 N 1016,2 24 0 0,0
21.07.2017 01:00:00 18,3 13,8 18,1 23,5 21,3 3 2 9 5 NNW 1016,7 23 0 0,0
21.07.2017 00:00:00 18,4 14,5 18,2 23,6 21,3 5 3 8 4 NNW 1017,0 20 0 0,0
20.07.2017 23:00:00 18,7 15,0 18,4 23,7 21,3 3 1 8 4 NW 1017,4 22 0 0,0
20.07.2017 22:00:00 19,0 14,7 18,7 23,7 21,3 4 2 6 3 WNW 1017,1 22 0 0,0
20.07.2017 21:00:00 19,8 14,2 19,8 23,7 21,3 4 2 9 5 W 1017,1 25 0 0,0
20.07.2017 20:00:00 20,5 13,9 20,9 23,8 21,3 5 3 10 5 NW 1017,2 26 0 0,0
20.07.2017 19:00:00 20,8 13,5 22,0 23,7 21,3 8 4 17 9 NNW 1017,2 25 0 0,0
20.07.2017 18:00:00 21,1 13,5 22,3 23,7 21,3 9 5 19 10 NNW 1017,6 27 0 0,0
20.07.2017 17:00:00 20,9 13,8 22,2 23,7 21,3 10 5 18 10 NNW 1017,6 23 0 0,0
20.07.2017 16:00:00 20,1 15,1 20,2 23,7 21,3 5 3 23 12 WNW 1017,8 18 0 0,0
20.07.2017 15:00:00 19,9 16,9 18,2 23,7 21,3 5 3 14 7 NW 1017,8 9 0 0,2
20.07.2017 14:00:00 20,1 16,5 18,7 23,7 21,3 6 4 18 10 NNW 1017,8 7 0 0,0
20.07.2017 13:00:00 19,8 17,0 18,7 23,7 21,3 9 5 18 10 W 1017,9 5 0 0,0
20.07.2017 12:00:00 18,2 15,6 18,1 23,7 21,2 8 5 22 12 NW 1017,9 4,0 0 0,0
20.07.2017 11:00:00 19,7 16,7 19,2 23,8 21,3 6 3 11 6 WNW 1017,6 15 0 0,0
20.07.2017 10:00:00 19,6 17,2 19,8 23,8 21,3 6 3 13 7 WZW 1017,4 15 0 0,0
20.07.2017 09:00:00 18,8 16,8 18,6 23,9 21,3 4 2 9 5 ZW 1017,3 10 0 0,0
20.07.2017 08:00:00 18,5 16,5 18,5 24,0 21,3 3 2 10 5 ZW 1016,9 10 0 0,0
20.07.2017 07:00:00 18,8 16,0 18,7 24,1 21,2 4 2 11 6 WZW 1016,7 10 0 0,0
20.07.2017 06:00:00 19,3 16,9 19,1 24,2 21,2 7 4 21 12 NW 1016,3 19 0 0,0
20.07.2017 05:00:00 20,1 17,5 20,0 24,3 21,2 5 3 10 5 W 1016,2 16 0 0,0
20.07.2017 04:00:00 20,2 18,0 20,1 24,4 21,2 6 3 11 6 WZW 1016,3 15 0 0,0
20.07.2017 03:00:00 20,6 18,5 20,4 24,4 21,2 7 4 11 6 WZW 1016,4 11 0 0,0
20.07.2017 02:00:00 20,3 18,8 20,0 24,6 21,2 3 2 7 4 ZZW 1016,4 9 0 0,0
20.07.2017 01:00:00 20,4 18,5 19,8 24,7 21,2 5 3 10 5 WZW 1015,9 10 0 0,0
20.07.2017 00:00:00 20,1 18,4 19,8 24,8 21,2 5 3 10 5 WZW 1015,5 8 0 0,0
19.07.2017 23:00:00 20,5 18,4 20,3 24,9 21,2 5 3 16 9 W 1015,5 10 0 0,0
19.07.2017 22:00:00 20,8 18,4 20,6 24,9 21,2 10 5 19 10 WNW 1014,7 11 5 0,0
19.07.2017 21:00:00 22,6 19,4 21,3 24,9 21,1 5 3 22 12 W 1014,3 13 58 0,0
19.07.2017 20:00:00 21,9 19,3 19,8 24,9 21,1 9 5 22 12 NW 1013,8 11 16 0,4
19.07.2017 19:00:00 22,1 18,7 20,0 24,8 21,1 11 6 26 14 NW 1014,1 11 0 0,6
19.07.2017 18:00:00 25,7 18,6 27,0 24,7 21,1 10 5 22 12 W 1013,0 19 28 0,0
19.07.2017 17:00:00 26,3 18,4 27,8 24,5 21,1 9 5 16 9 WNW 1012,6 15 17 0,0
19.07.2017 16:00:00 26,3 18,2 28,8 24,4 21,1 7 4 23 13 NNW 1012,8 14 26 0,0
19.07.2017 15:00:00 25,9 19,1 27,5 24,2 21,1 7 4 17 9 WNW 1012,4 10 24 0,0
19.07.2017 14:00:00 25,1 18,8 27,0 24,1 21,1 8 5 15 8 WNW 1012,4 10 19 0,0
19.07.2017 13:00:00 24,8 19,0 24,6 24,1 21,1 2 1 10 5 WNW 1012,6 10 19 0,0
19.07.2017 12:00:00 23,6 18,5 24,4 24,0 21,0 4 2 8 5 ONO 1012,9 8 16 0,0
19.07.2017 11:00:00 22,3 18,3 23,2 24,1 21,0 4 2 12 6 NW 1012,9 6 21 0,0
19.07.2017 10:00:00 21,0 18,8 20,5 24,1 21,0 4 2 7 4 NNW 1012,9 4,0 0 0,0
19.07.2017 09:00:00 20,2 19,0 19,8 24,2 21,0 3 1 5 3 W 1012,2 7 0 0,0
19.07.2017 08:00:00 19,8 19,1 19,5 24,3 21,0 3 1 9 5 NW 1011,5 3,0 0 0,0
19.07.2017 07:00:00 19,7 19,2 19,2 24,4 21,0 5 3 10 5 W 1011,7 1,5 0 0,0
19.07.2017 06:00:00 19,6 19,1 19,2 24,6 21,0 4 2 10 5 W 1011,0 3,6 0 0,0
19.07.2017 05:00:00 19,8 19,5 19,3 24,7 21,0 6 3 11 6 WNW 1010,8 2,7 0 0,0
19.07.2017 04:00:00 20,0 19,5 19,5 24,8 21,0 3 2 10 5 WNW 1010,9 3,0 0 0,0
19.07.2017 03:00:00 20,2 19,7 19,6 24,9 21,0 5 3 8 4 ZZW 1011,6 2,2 0 0,2
19.07.2017 02:00:00 20,5 19,7 20,0 25,0 21,0 3 2 13 7 WZW 1012,2 5 0 0,0
19.07.2017 01:00:00 20,8 19,8 20,2 25,1 21,0 9 5 25 14 WNW 1012,2 7 0 0,2
19.07.2017 00:00:00 21,1 20,1 20,4 25,2 21,0 13 7 34 19 ZO 1012,2 5 0 0,2
18.07.2017 23:00:00 21,7 19,4 21,2 25,2 21,0 18 10 48 26 W 1011,7 9 0 0,0
18.07.2017 22:00:00 22,9 18,7 21,0 25,3 21,0 26 14 34 18 ONO 1007,0 11 0 0,6
18.07.2017 21:00:00 22,2 20,1 20,8 25,3 21,0 8 4 34 19 N 1011,1 6 0 0,6
18.07.2017 20:00:00 23,2 19,6 23,1 25,2 20,9 16 9 59 32 W 1010,3 10 4 0,0
18.07.2017 19:00:00 34,9 22,3 36,4 25,0 20,9 8 4 29 16 ZZO 1007,5 26 57 0,0
18.07.2017 18:00:00 35,6 23,6 37,7 24,8 20,9 15 8 25 13 O 1007,0 25 60 0,0
18.07.2017 17:00:00 36,5 22,3 38,7 24,5 20,9 16 9 25 14 O 1007,3 20 60 0,0
18.07.2017 16:00:00 37,5 17,5 40,9 24,2 20,9 6 3 18 10 ZZO 1008,0 25 60 0,0
18.07.2017 15:00:00 36,6 17,2 39,0 23,9 20,9 8 5 21 12 ZZO 1008,5 20 60 0,0
18.07.2017 14:00:00 35,2 18,7 36,7 23,6 20,9 9 5 18 10 ZZO 1009,1 20 60 0,0
18.07.2017 13:00:00 33,3 24,2 34,3 23,5 20,9 9 5 19 11 OZO 1009,5 20 60 0,0
18.07.2017 12:00:00 30,8 22,4 30,8 23,4 20,9 13 7 18 10 OZO 1009,8 20 60 0,0
18.07.2017 11:00:00 27,6 21,2 27,0 23,4 20,9 9 5 15 8 O 1010,0 20 47 0,0
18.07.2017 10:00:00 24,7 19,1 23,9 23,4 20,9 6 4 11 6 O 1010,4 20 60 0,0
18.07.2017 09:00:00 21,3 17,3 21,0 23,6 20,9 8 4 12 7 O 1010,4 10 60 0,0
18.07.2017 08:00:00 19,5 16,3 17,5 23,6 20,9 3 2 9 5 ONO 1010,2 10 57 0,0
18.07.2017 07:00:00 18,5 15,6 17,4 23,8 20,9 5 3 10 6 ONO 1010,4 10 0 0,0
18.07.2017 06:00:00 19,4 15,7 18,7 23,9 20,8 5 3 11 6 NO 1010,3 28 0 0,0
18.07.2017 05:00:00 20,2 15,8 19,1 24,0 20,9 6 4 11 6 NO 1010,4 31 0 0,0
18.07.2017 04:00:00 20,9 16,5 20,2 24,1 20,8 6 3 14 8 NO 1010,5 30 0 0,0
18.07.2017 03:00:00 22,0 17,1 21,2 24,2 20,8 9 5 17 9 ONO 1010,7 34 0 0,0
18.07.2017 02:00:00 23,4 17,8 22,3 24,2 20,8 7 4 16 9 NO 1010,9 29 0 0,0
18.07.2017 01:00:00 24,7 18,9 24,0 24,3 20,8 9 5 19 11 NO 1011,2 33 0 0,0
18.07.2017 00:00:00 26,3 20,2 24,4 24,3 20,8 10 5 15 8 ONO 1011,1 27 0 0,0
17.07.2017 23:00:00 27,0 21,7 26,3 24,3 20,8 10 5 20 11 ONO 1010,9 30 0 0,0
17.07.2017 22:00:00 28,4 22,2 27,6 24,4 20,8 14 7 19 11 ONO 1010,7 33 10 0,0
17.07.2017 21:00:00 29,1 22,1 28,0 24,3 20,8 9 5 19 10 O 1010,9 33 38 0,0
17.07.2017 20:00:00 30,8 21,6 32,1 24,3 20,8 13 7 26 14 OZO 1011,0 31 60 0,0
17.07.2017 19:00:00 31,7 20,9 32,2 24,2 20,8 14 7 29 16 ZO 1011,3 31 60 0,0
17.07.2017 18:00:00 30,6 21,7 32,2 24,1 20,8 18 10 32 17 OZO 1011,7 29 60 0,0
17.07.2017 17:00:00 30,5 21,6 27,8 23,9 20,8 16 9 29 16 OZO 1012,7 26 12 0,0
17.07.2017 16:00:00 29,7 21,4 28,6 23,8 20,8 11 6 19 10 NO 1013,9 10 0 0,0
17.07.2017 15:00:00 29,6 21,3 30,0 23,5 20,8 8 5 19 11 ZO 1014,1 28 15 0,0
17.07.2017 14:00:00 30,9 20,5 33,1 23,3 20,8 9 5 19 10 O 1014,3 20 60 0,0
17.07.2017 13:00:00 29,9 20,5 30,6 23,1 20,7 10 6 19 10 OZO 1014,7 20 57 0,0
17.07.2017 12:00:00 27,7 20,8 28,5 23,1 20,8 8 4 16 9 ONO 1014,9 20 41 0,0
17.07.2017 11:00:00 25,0 20,7 26,1 23,0 20,7 2 1 10 5 N 1015,6 15 6 0,0
17.07.2017 10:00:00 23,9 19,4 23,9 23,0 20,7 5 3 10 5 NNW 1015,8 15 36 0,0
17.07.2017 09:00:00 21,6 19,3 23,3 23,1 20,7 0 0 8 4 N 1016,4 10 38 0,0
17.07.2017 08:00:00 19,7 18,7 18,5 23,2 20,7 0 0 10 5 N 1016,2 10 51 0,0

tt = temperatuur
td = dauwpunt
tt 5cm = temperatuur 5cm
tt -20cm = temperatuur -20cm
tt -100cm = temperatuur -100cm
ff = windsnelheid
fx = windstoten
dd = windrichting
ppp = luchtdruk
vv = zicht
sd = Zonneschijnduur
rr = neerslag

Weerstations in de omgeving